SUMZM MYEF-MYLS

Flight info

Callsign SUMZM
Flight time 0h 22m
Altitude 11000
Route 233209N0755302W 232907N0755008W DCT 232722N0754506W 232627N0754133W 232620N0754007W 232630N0753900W 232559N0753847W 232548N0753758W/N0260F100 232517N0753802W/N0257F090 232521N0753739W 232444N0753648W 232508N0753509W 232411N0753345W 232343N0753057W 232240N0752703W DCT 233322N0751934W
Aircraft PC12/L-SDFGRWY/S

Departure

Time 2026-05-06 20:41
Airport Exuma International Airport (MYEF)

Arrival

Time 2026-05-06 21:03
Airport Stella Maris Airport (MYLS)
Time Latitude Longitude Altitude Speed Heading
2026-05-06 20:35 23.56346 -75.87276 14 ft 0 kts 28°
2026-05-06 20:39 23.56360 -75.87276 14 ft 6 kts 328°
2026-05-06 20:39 23.56342 -75.87325 14 ft 10 kts 226°
2026-05-06 20:39 23.56279 -75.87390 14 ft 15 kts 209°
2026-05-06 20:39 23.56188 -75.87446 15 ft 15 kts 209°
2026-05-06 20:40 23.56129 -75.87516 15 ft 4 kts 294°
2026-05-06 20:40 23.56139 -75.87539 15 ft 20 kts 296°
2026-05-06 20:40 23.56308 -75.87889 14 ft 81 kts 298°
2026-05-06 20:40 23.56568 -75.88544 158 ft 104 kts 279°
2026-05-06 20:41 23.56211 -75.89231 480 ft 115 kts 205°
2026-05-06 20:41 23.55350 -75.89234 684 ft 138 kts 158°
2026-05-06 20:41 23.54402 -75.88688 805 ft 171 kts 159°
2026-05-06 20:41 23.53210 -75.88493 1182 ft 177 kts 183°
2026-05-06 20:42 23.51977 -75.88650 1548 ft 181 kts 178°
2026-05-06 20:42 23.50826 -75.88117 1921 ft 186 kts 135°
2026-05-06 20:42 23.50223 -75.86868 2293 ft 188 kts 108°
2026-05-06 20:42 23.49726 -75.85568 2658 ft 191 kts 118°
2026-05-06 20:43 23.49022 -75.84325 3023 ft 194 kts 124°
2026-05-06 20:43 23.48358 -75.83041 3393 ft 195 kts 111°
2026-05-06 20:43 23.47877 -75.81649 3750 ft 198 kts 111°
2026-05-06 20:43 23.47382 -75.80237 4109 ft 200 kts 111°
2026-05-06 20:44 23.46884 -75.78816 4480 ft 202 kts 111°
2026-05-06 20:44 23.46383 -75.77378 4850 ft 205 kts 111°
2026-05-06 20:44 23.45873 -75.75916 5209 ft 206 kts 111°
2026-05-06 20:44 23.45429 -75.74453 5564 ft 203 kts 105°
2026-05-06 20:45 23.45056 -75.72972 5931 ft 203 kts 106°
2026-05-06 20:45 23.44668 -75.71489 6304 ft 203 kts 106°
2026-05-06 20:45 23.44280 -75.69999 6659 ft 204 kts 106°
2026-05-06 20:45 23.44016 -75.68489 7010 ft 202 kts 95°
2026-05-06 20:46 23.43919 -75.66959 7359 ft 202 kts 90°
2026-05-06 20:46 23.44080 -75.65462 7711 ft 202 kts 87°
2026-05-06 20:46 23.43878 -75.63962 8061 ft 199 kts 94°
2026-05-06 20:46 23.43575 -75.62505 8427 ft 198 kts 122°
2026-05-06 20:47 23.42565 -75.61566 8794 ft 196 kts 161°
2026-05-06 20:47 23.41244 -75.61453 9176 ft 191 kts 195°
2026-05-06 20:47 23.39946 -75.61634 9555 ft 193 kts 171°
2026-05-06 20:47 23.38792 -75.60879 9948 ft 203 kts 131°
2026-05-06 20:48 23.38302 -75.59426 10303 ft 212 kts 91°
2026-05-06 20:48 23.38652 -75.57875 10656 ft 214 kts 67°
2026-05-06 20:48 23.39173 -75.56339 10978 ft 220 kts 74°
2026-05-06 20:48 23.39411 -75.54623 10999 ft 237 kts 86°
2026-05-06 20:49 23.39473 -75.52775 11002 ft 248 kts 88°
2026-05-06 20:49 23.39354 -75.50887 11000 ft 254 kts 103°
2026-05-06 20:49 23.38892 -75.49043 11001 ft 257 kts 101°
2026-05-06 20:49 23.38848 -75.47089 11003 ft 261 kts 83°
2026-05-06 20:50 23.39355 -75.45181 11000 ft 263 kts 64°
2026-05-06 20:50 23.40376 -75.43536 11003 ft 263 kts 47°
2026-05-06 20:50 23.41671 -75.42153 10982 ft 261 kts 49°
2026-05-06 20:50 23.42530 -75.40504 10992 ft 233 kts 67°
2026-05-06 20:51 23.43118 -75.38986 10932 ft 205 kts 64°
2026-05-06 20:51 23.43750 -75.37636 10622 ft 197 kts 60°
2026-05-06 20:51 23.44419 -75.36357 10295 ft 192 kts 59°
2026-05-06 20:51 23.45067 -75.35112 9950 ft 189 kts 62°
2026-05-06 20:52 23.45356 -75.33731 9565 ft 185 kts 90°
2026-05-06 20:52 23.45220 -75.32363 9188 ft 183 kts 99°
2026-05-06 20:52 23.45017 -75.30998 8810 ft 182 kts 100°
2026-05-06 20:52 23.44811 -75.29638 8446 ft 181 kts 100°
2026-05-06 20:53 23.44604 -75.28296 8085 ft 180 kts 100°
2026-05-06 20:53 23.44397 -75.26960 7725 ft 179 kts 100°
2026-05-06 20:53 23.44190 -75.25627 7370 ft 177 kts 100°
2026-05-06 20:53 23.43984 -75.24310 7017 ft 176 kts 100°
2026-05-06 20:54 23.43776 -75.22996 6664 ft 175 kts 100°
2026-05-06 20:54 23.43570 -75.21702 6313 ft 173 kts 100°
2026-05-06 20:54 23.43364 -75.20410 5938 ft 173 kts 100°
2026-05-06 20:54 23.43159 -75.19132 5579 ft 173 kts 100°
2026-05-06 20:55 23.42953 -75.17851 5218 ft 171 kts 100°
2026-05-06 20:55 23.42742 -75.16561 4854 ft 170 kts 100°
2026-05-06 20:55 23.42536 -75.15316 4494 ft 169 kts 100°
2026-05-06 20:55 23.42326 -75.14061 4123 ft 167 kts 100°
2026-05-06 20:56 23.42116 -75.12818 3765 ft 166 kts 100°
2026-05-06 20:56 23.41906 -75.11586 3402 ft 165 kts 100°
2026-05-06 20:56 23.41695 -75.10359 3041 ft 164 kts 100°
2026-05-06 20:56 23.41474 -75.09069 2688 ft 189 kts 99°
2026-05-06 20:57 23.41494 -75.07564 2407 ft 213 kts 71°
2026-05-06 20:57 23.42383 -75.06234 2241 ft 226 kts 37°
2026-05-06 20:57 23.43868 -75.05651 2075 ft 233 kts
2026-05-06 20:57 23.45423 -75.06040 1899 ft 237 kts 332°
2026-05-06 20:58 23.46585 -75.07329 1720 ft 240 kts 299°
2026-05-06 20:58 23.47119 -75.09039 1555 ft 238 kts 285°
2026-05-06 20:58 23.47600 -75.10741 1385 ft 239 kts 290°
2026-05-06 20:58 23.48320 -75.12370 1211 ft 239 kts 303°
2026-05-06 20:59 23.49362 -75.13801 1037 ft 239 kts 313°
2026-05-06 20:59 23.50489 -75.15101 872 ft 239 kts 313°
2026-05-06 20:59 23.51590 -75.16446 807 ft 234 kts 311°
2026-05-06 20:59 23.52587 -75.17729 801 ft 203 kts 311°
2026-05-06 21:00 23.53418 -75.18803 795 ft 168 kts 309°
2026-05-06 21:00 23.54001 -75.19764 795 ft 136 kts 304°
2026-05-06 21:00 23.54458 -75.20523 793 ft 108 kts 305°
2026-05-06 21:00 23.54850 -75.21170 797 ft 94 kts 305°
2026-05-06 21:01 23.55182 -75.21720 796 ft 82 kts 305°
2026-05-06 21:01 23.55479 -75.22249 754 ft 83 kts 302°
2026-05-06 21:01 23.55817 -75.22776 750 ft 86 kts 308°
2026-05-06 21:01 23.56166 -75.23326 683 ft 91 kts 304°
2026-05-06 21:02 23.56506 -75.23915 637 ft 93 kts 302°
2026-05-06 21:02 23.56861 -75.24506 525 ft 92 kts 306°
2026-05-06 21:02 23.57207 -75.25043 373 ft 84 kts 305°
2026-05-06 21:02 23.57519 -75.25592 203 ft 84 kts 305°
2026-05-06 21:03 23.57832 -75.26109 84 ft 81 kts 306°
2026-05-06 21:03 23.58137 -75.26590 11 ft 67 kts 300°
2026-05-06 21:03 23.58328 -75.26909 9 ft 36 kts 304°
2026-05-06 21:03 23.58437 -75.27091 11 ft 27 kts 304°
2026-05-06 21:04 23.58543 -75.27258 10 ft 25 kts 307°
2026-05-06 21:04 23.58600 -75.27351 10 ft 11 kts 202°
2026-05-06 21:04 23.58551 -75.27275 10 ft 18 kts 122°
2026-05-06 21:04 23.58467 -75.27139 12 ft 25 kts 124°
2026-05-06 21:05 23.58360 -75.26958 9 ft 32 kts 121°
2026-05-06 21:05 23.58232 -75.26751 9 ft 26 kts 123°
2026-05-06 21:05 23.58156 -75.26608 10 ft 14 kts 81°
2026-05-06 21:05 23.58194 -75.26565 10 ft 7 kts 37°
2026-05-06 21:06 23.58186 -75.26523 11 ft 7 kts 140°
2026-05-06 21:06 23.58162 -75.26479 12 ft 8 kts 58°
2026-05-06 21:06 23.58192 -75.26483 13 ft 0 kts 315°
2026-05-06 21:06 23.58197 -75.26488 13 ft 0 kts 317°